280  
ASUS42 KCAE 230510  
RWRCAE  
REGIONAL WEATHER ROUNDUP  
NATIONAL WEATHER SERVICE COLUMBIA SC  
1200 AM EST THU JAN 23 2020  
 
NOTE: "FAIR" INDICATES FEW OR NO CLOUDS BELOW 12,000 FEET WITH NO  
SIGNIFICANT WEATHER AND/OR S TO VISIBILITY
.  
 
NOT ALL STATIONS ARE QUALITY CONTROLLED BY THE NATIONAL  
WEATHER SERVICE. USE DATA WITH CAUTION...ESPECIALLY  
DEWPOINT OBSERVATIONS.  
 
SCZ001>056-GAZ040-063>065-077-230600-   
..UPSTATE SOUTH CAROLINA
 
 
 
CITY SKY/WX TMP DP RH WIND PRES REMARKS
 
ANDERSON FAIR 35 17 47 NE8 30.35F WCI 29  
LIBERTY FAIR 30 19 62 NE5 30.34F WCI 25  
SPARTANBURG FAIR 32 18 55 N5 30.38R WCI 27  
CLEMSON FAIR 34 18 52 NE7 30.36F WCI 28  
GREENVILLE FAIR 36 16 44 NE12 30.36S WCI 28  
GREENWOOD FAIR 31 19 61 NE7 30.37S WCI 24  
GREER FAIR 31 15 52 N5 30.38R WCI 26  
ROCK HILL FAIR 33 15 47 NE3 30.37F  
CHESTER FAIR 32 18 55 NE3 30.38R  
LAURENS FAIR 32 21 64 N7 30.37S WCI 26  
 
   
..CENTRAL SOUTH CAROLINA
 
 
 
CITY SKY/WX TMP DP RH WIND PRES REMARKS
 
COLUMBIA APT FAIR 38 18 44 N3 30.37R  
COLUMBIA OWENS FAIR 38 18 44 CALM 30.38R  
MCENTIRE ANGB FAIR 37 17 43 NE5 30.35F WCI 33  
ORANGEBURG FAIR 39 19 44 NE7 30.34S WCI 34  
SUMTER SHAW FAIR 35 18 50 NE8 30.34F WCI 29  
NEWBERRY FAIR 32 19 59 NE5 30.40R WCI 27  
AIKEN FAIR 35 18 49 NE8 30.34F WCI 29  
BARNWELL CLOUDY 37 19 48 NE6 30.34S WCI 33  
MANNING FAIR 36 23 60 NE5 30.33F WCI 32  
CAMDEN MOCLDY 36 16 44 NE7 30.36F WCI 30  
LANCASTER CLOUDY 34 16 47 NE3 30.36F  
WINNSBORO FAIR 34 19 55 NE5 30.35S WCI 30  
 
   
..EASTERN AND COASTAL SOUTH CAROLINA
 
 
 
CITY SKY/WX TMP DP RH WIND PRES REMARKS
 
MYRTLE BEACH FAIR 40 28 62 N9 30.33F WCI 34  
N MYRTLE BCH FAIR 40 28 62 NE12 30.32F WCI 33  
CONWAY FAIR 34 28 80 N3 30.35F  
MARION FAIR 36 25 64 NE6 30.37S WCI 31  
HARTSVILLE MOCLDY 36 18 48 NE10 30.35F WCI 28  
FLORENCE FAIR 38 21 50 NE9 30.35F WCI 31  
DARLINGTON FAIR 32 21 64 N7 30.36F WCI 26  
CHARLESTON APT FAIR 41 30 65 N14 30.29F  
MOUNT PLEASANT CLOUDY 39 32 75 VRB5 30.29F  
WALTERBORO FAIR 41 28 60 N9 30.32F  
BEAUFORT FAIR 43 32 65 NE13 30.30S  
HILTON HEAD MOCLDY 45 34 65 N17 30.28F  
 
   
..EASTERN GEORGIA
 
 
 
CITY SKY/WX TMP DP RH WIND PRES REMARKS
 
AUGUSTA BUSH F FAIR 33 23 66 NW5 30.35S WCI 29  
AUGUSTA DANIEL FAIR 41 17 38 NE6 30.35S  
THOMSON MOCLDY 32 24 72 SE6 30.34S WCI 27  
WASHINGTON FAIR 36 19 51 E5 30.35R WCI 32  
CLAXTON FAIR 45 29 53 NE7 30.29S  
SYLVANIA FAIR 41 26 55 NE9 30.30F  
STATESBORO FAIR 40 26 56 NE3 30.29F  
SAVANNAH MOCLDY 44 31 60 N12 30.28F  
 
   
..SOUTHERN NORTH CAROLINA
 
 
 
CITY SKY/WX TMP DP RH WIND PRES REMARKS
 
CHARLOTTE FAIR 31 15 52 N6 30.38F WCI 25  
MONROE FAIR 31 16 54 NE7 30.36F WCI 24  
WADESBORO FAIR 27 19 73 CALM 30.38F  
ROCKINGHAM FAIR 32 11 41 NE3 30.37F  
RUTHERFORDTON FAIR 28 14 54 N3 30.39R  
ASHEVILLE FAIR 28 16 60 SE3 30.34R  
 

 
 
 
CLICK HERE TO GO TO PREVIOUS BULLETINS.

The Nexlab SC Page
The Nexlab GA Page Main Text Page